Regional Weather Roundup
Issued by NWS

Home | Current Version | Previous Version | Text Only | Print | Product List | Glossary On
Versions: 1 2 3 4 5 6 7 8 9 10 11 12 13 14 15 16 17 18 19 20 21 22 23 24 25 26 27 28 29 30 31 32 33 34 35 36 37 38 39 40 41 42 43 44 45 46 47 48 49 50
000
ASUS43 KLSX 280007
RWRMO

WEATHER SUMMARY FOR MISSOURI
NATIONAL WEATHER SERVICE SPRINGFIELD MO
700 PM CDT WED AUG 27 2014

NOTE: "FAIR" INDICATES FEW OR NO CLOUDS BELOW 12,000 FEET WITH NO
       SIGNIFICANT WEATHER AND/OR OBSTRUCTIONS TO VISIBILITY.
       CURRENT SKY AND/OR WEATHER CONDITIONS ARE NOT AVAILABLE FOR
       CHILLICOTHE AND FARMINGTON.

MOZ001>031-035>038-043-044-053-054-280100-
...NORTHERN AND WESTERN MISSOURI...

CITY           SKY/WX    TMP DP  RH WIND       PRES   REMARKS
KANSAS CTY INT CLOUDY    82  70  66 E8        30.04S
6HR MIN TEMP:  77; 6HR MAX TEMP:  86;

KANSAS C DTWN  CLOUDY    84  71  65 E8        30.02S
6HR MIN TEMP:  83; 6HR MAX TEMP:  88;

LEE`S SUMMIT   MOCLDY    81  72  74 E5        30.04S
6HR MIN TEMP:  81; 6HR MAX TEMP:  86;

ST JOSEPH      CLOUDY    79  72  79 E5        30.04S
6HR MIN TEMP:  72; 6HR MAX TEMP:  82;

CHILLICOTHE      N/A     80  71  74 NE3       30.06S
6HR MIN TEMP:  74; 6HR MAX TEMP:  82;

KIRKSVILLE     MOCLDY    76  70  82 CALM      30.08S
6HR MIN TEMP:  73; 6HR MAX TEMP:  78; 6HR PCP:  0.12;


$$
MOZ066>068-077>081-088>096-101>105-280100-
...SOUTHWEST MISSOURI...

CITY           SKY/WX    TMP DP  RH WIND       PRES   REMARKS
SPRINGFIELD    CLOUDY    85  68  56 NE7       30.02F
6HR MIN TEMP:  83; 6HR MAX TEMP:  98; 6HR PCP: TRACE;

JOPLIN         PTCLDY    85  68  56 E9        30.01S
6HR MIN TEMP:  85; 6HR MAX TEMP:  98;


$$
MOZ032>034-039>042-045>050-055>058-069>072-280100-
...CENTRAL MISSOURI...

CITY           SKY/WX    TMP DP  RH WIND       PRES   REMARKS
COLUMBIA       PTCLDY    79  67  66 E6        30.04F
6HR MIN TEMP:  79; 6HR MAX TEMP:  88;

JEFFERSON CITY MOCLDY    81  66  60 SE7       30.02S
6HR MIN TEMP:  81; 6HR MAX TEMP:  92;

ROLLA          CLOUDY    76  66  71 E9        30.06R
6HR MIN TEMP:  73; 6HR MAX TEMP:  91; 6HR PCP:  0.02;

SEDALIA        CLEAR     84  73  69 E7        30.04F HX  90
6HR MIN TEMP:  83; 6HR MAX TEMP:  88; 6HR PCP: TRACE;

WHITEMAN AFB   CLEAR     81  55  40 E3        30.03F
OSAGE BEACH    MOCLDY    82  66  57 E7        30.03S

$$
MOZ051-052-059>065-280100-
...EAST CENTRAL MISSOURI...

CITY           SKY/WX    TMP DP  RH WIND       PRES   REMARKS
ST LOUIS INTL  CLOUDY    79  70  74 SW12      30.10R
6HR MIN TEMP:  77; 6HR MAX TEMP:  95; 6HR PCP:  0.13;

SPIRIT OF STL  LGT RAIN  73  69  87 SE6       30.09R
6HR MIN TEMP:  72; 6HR MAX TEMP:  94; 6HR PCP:  0.03;

ST CHARLES     CLOUDY    78  69  73 W12G18    30.09R THUNDER
6HR MIN TEMP:  78; 6HR MAX TEMP:  92;


$$
MOZ072>076-082>087-097>100-106>115-280100-
...SOUTH CENTRAL AND SOUTHEAST MISSOURI...

CITY           SKY/WX    TMP DP  RH WIND       PRES   REMARKS
CAPE GIRARDEAU PTCLDY    86  76  71 CALM      30.01S HX  96
6HR MIN TEMP:  86; 6HR MAX TEMP:  94;

FARMINGTON     CLOUDY    79  70  73 N5        30.08R
6HR MIN TEMP:  75; 6HR MAX TEMP:  95; 6HR PCP:  0.09;

POPLAR BLUFF   PTCLDY    88  69  53 S5        29.99F HX  92
6HR MIN TEMP:  88; 6HR MAX TEMP:  94;

WEST PLAINS    MOCLDY    83  66  56 SE5       30.05F
6HR MIN TEMP:  83; 6HR MAX TEMP:  96; 6HR PCP: TRACE;


$$



USA.gov is the U.S. government's official web portal to all federal, state and local government web resources and services.